Weather observations for the past three days for
Hastings, Hastings Municipal Airport
Imperial (Metric)
Date Time (cdt) Wind (mph) Vis. (mi.) Weather Sky Cond. Temperature (ºF) Relative Humidity Wind Chill (°F) Heat Index (°F) Pressure Precipitation (in)
Air Dwpt 6 hour altimeter (in) sea level (mb) 1 hr 3 hr 6 hr
Max. Min.
01 15:53 Vrbl 6 10.00 A Few Clouds FEW110 91.9 72 52% 100 29.92 1010.8
01 14:53 S 8 10.00 Fair CLR 90 71.1 54% 96 29.94 1011.5
01 13:53 S 8 10.00 Fair CLR 88 71.1 57% 94 29.96 1012.3
01 12:53 S 7 10.00 Fair CLR 86 71.1 87.1 69.1 61% 92 29.97 1012.9
01 11:53 Vrbl 7 10.00 Fair CLR 84.9 70 61% 89 29.97 1013.0
01 10:53 N 7 10.00 Fair CLR 81 71.1 72% 85 29.96 1012.7
01 09:53 N 6 10.00 Fair CLR 77 70 79% 79 29.96 1012.6
01 08:53 NW 8 10.00 Fair CLR 73 68 84% 29.96 1012.7
01 07:53 W 6 10.00 Fair CLR 71.1 64.9 81% 29.96 1012.8
01 06:53 Vrbl 3 10.00 Fair CLR 71.1 63 77 70 76% 29.96 1012.4
01 05:53 S 7 10.00 Fair CLR 73.9 64 71% 29.93 1011.2
01 04:53 SE 5 10.00 Fair CLR 75.9 64 67% 78 29.95 1011.8
01 03:53 SE 5 10.00 A Few Clouds FEW110 75 66 74% 76 29.95 1011.8
01 02:53 SE 6 10.00 Fair CLR 77 66.9 71% 79 29.95 1011.9
01 01:53 NE 5 10.00 Fair CLR 73 70 90% 29.96 1012.5
01 00:53 E 3 10.00 Fair CLR 73.9 70 84.9 73.9 88% 29.97 1012.9
31 23:53 NE 5 10.00 Fair CLR 73.9 70 88% 29.98 1013.5
31 22:53 E 3 10.00 Fair CLR 77 70 79% 79 29.98 1013.5
31 21:53 E 6 10.00 Fair CLR 78.1 70 76% 80 29.98 1013.6
31 20:53 E 7 10.00 Fair CLR 80.1 68 67% 83 29.96 1012.6
31 19:53 E 5 10.00 Fair CLR 82.9 68 61% 86 29.95 1012.4
31 18:53 E 7 10.00 Fair CLR 84.9 69.1 90 82 59% 89 29.96 1012.4
31 17:53 Calm 10.00 Fair CLR 89.1 64 43% 90 29.96 1012.3
31 16:53 Vrbl 3 10.00 Fair CLR 89.1 61 39% 89 29.98 1012.8
31 15:53 SW 7 10.00 Fair CLR 89.1 64.9 45% 91 29.99 1013.4
31 14:53 S 6 10.00 Fair CLR 87.1 64.9 48% 89 30 1013.8
31 13:53 Calm 10.00 Fair CLR 84.9 64.9 51% 87 30.01 1014.2
31 12:53 S 3 10.00 Fair CLR 82.9 66 82.9 69.1 57% 85 30.02 1014.5
31 11:53 Calm 10.00 Fair CLR 80.1 66 62% 82 30.01 1014.5
31 10:53 NE 7 10.00 Fair CLR 77 64.9 66% 79 30 1014.0
31 09:53 N 9 10.00 Fair CLR 73.9 64 71% 29.99 1013.7
31 08:53 NW 9 10.00 Fair CLR 71.1 64.9 81% 29.97 1013.1
31 07:53 NW 10 10.00 Fair CLR 70 64 82% 29.96 1012.6
31 06:53 Calm 10.00 A Few Clouds FEW100 FEW120 70 64.9 75.9 70 84% 29.95 1012.3 0.01 0.01
31 05:53 W 13 10.00 Light Rain FEW100 SCT120 73.9 64 71% 30 1013.8
31 04:53 W 9 10.00 Partly Cloudy SCT100 73.9 68 82% 29.94 1011.9
31 03:53 SW 6 10.00 Fair CLR 73 69.1 87% 29.91 1010.8
31 02:53 SW 3 10.00 Fair CLR 73 69.1 87% 29.9 1010.5
31 01:53 SW 6 10.00 Fair CLR 75 69.1 82% 75 29.89 1010.1
30 23:53 Calm 10.00 Fair CLR 75 71.1 88% 75 29.86 1009.3
30 22:53 Calm 10.00 Fair CLR 75.9 71.1 85% 76 29.87 1009.5
30 21:53 Calm 10.00 Fair CLR 77 72 85% 78 29.88 1010.0
30 20:53 Calm 10.00 Fair CLR 80.1 73 79% 84 29.87 1009.4
30 19:53 Calm 10.00 Fair CLR 84 72 67% 90 29.86 1009.1
30 18:53 Calm 10.00 Fair CLR 87.1 72 88 84.9 61% 94 29.86 1009.1
30 17:53 S 5 10.00 Fair CLR 88 71.1 57% 94 29.85 1008.5
30 16:53 S 8 10.00 Fair CLR 88 71.1 57% 94 29.85 1008.4
30 15:53 S 6 10.00 Fair CLR 87.1 71.1 59% 93 29.85 1008.8
30 14:53 S 8 10.00 Fair CLR 87.1 72 61% 94 29.86 1008.7
30 13:53 Calm 10.00 Fair CLR 88 66.9 50% 91 29.85 1008.4
30 12:53 W 5 10.00 Fair CLR 86 69.1 87.1 71.1 57% 90 29.86 1008.9
30 11:53 NW 8 10.00 Fair CLR 82 68 63% 85 29.85 1008.6
30 10:53 SW 9 10.00 Fair CLR 80.1 64.9 60% 82 29.88 1009.4
30 09:53 W 8 10.00 Fair CLR 77 63 62% 79 29.84 1008.7
30 08:53 S 6 10.00 Fair CLR 75.9 61 60% 78 29.84 1008.3
30 07:53 S 8 10.00 Fair CLR 72 61 68% 29.82 1007.6
30 06:53 S 8 10.00 Fair CLR 73 62.1 79 73 69% 29.81 1007.3
30 05:53 SE 7 10.00 Fair CLR 75 64.9 71% 77 29.81 1007.2
30 04:53 E 8 10.00 Fair CLR 75 66 74% 76 29.83 1007.9
30 03:53 Calm 10.00 Fair CLR 73 66.9 81% 29.88 1009.5
30 02:53 SW 3 10.00 A Few Clouds FEW110 75.9 64 67% 78 29.88 1009.6
30 01:53 S 7 10.00 Fair CLR 77 62.1 60% 79 29.84 1008.3
30 00:53 S 7 10.00 Fair CLR 79 63 91.9 77 58% 81 29.84 1008.1
29 23:53 S 9 10.00 Fair CLR 82.9 64 53% 84 29.83 1007.8
29 22:53 SE 8 10.00 Fair CLR 84.9 69.1 59% 89 29.83 1007.9
29 21:53 Calm 10.00 Fair CLR 79 73 82% 82 29.84 1008.4
29 20:53 Calm 7.00 Fair CLR 81 73.9 79% 86 29.82 1007.9
29 19:53 Calm 10.00 Fair CLR 89.1 70 53% 94 29.82 1007.5
29 18:53 S 3 10.00 Fair CLR 91.9 70 93 86 49% 98 29.81 1007.2
29 17:53 SW 5 10.00 Fair CLR 91.9 69.1 47% 97 29.82 1007.5
29 16:53 S 8 10.00 Fair CLR 91.9 68 46% 96 29.82 1007.7
Date Time (cdt) Wind (mph) Vis. (mi.) Weather Sky Cond. Air Dwpt Max. Min. Relative Humidity Wind Chill (°F) Heat Index (°F) altimeter (in) sea level (mb) 1 hr 3 hr 6 hr
6 hour
Temperature (ºF) Pressure Precipitation (in)